TimeEST,TemperatureF,Dew PointF,Humidity,Sea Level PressureIn,VisibilityMPH,Wind Direction,Wind SpeedMPH,Gust SpeedMPH,PrecipitationIn,Events,Conditions,WindDirDegrees,DateUTC
12:54 AM,55.9,48.9,77,30.00,10.0,SSW,5.8,-,N/A,,Partly Cloudy,210,2013-12-21 05:54:00
1:54 AM,54.0,48.0,80,29.99,10.0,Variable,5.8,-,N/A,,Clear,0,2013-12-21 06:54:00
2:54 AM,54.0,46.9,77,30.01,10.0,SW,6.9,-,N/A,,Clear,220,2013-12-21 07:54:00
3:54 AM,53.1,46.9,80,30.00,10.0,SSW,5.8,-,N/A,,Mostly Cloudy,210,2013-12-21 08:54:00
4:54 AM,54.0,46.0,75,29.99,10.0,SW,8.1,-,N/A,,Overcast,230,2013-12-21 09:54:00
5:54 AM,54.0,46.0,75,30.01,10.0,SW,6.9,-,N/A,,Scattered Clouds,220,2013-12-21 10:54:00
6:54 AM,52.0,45.0,77,30.00,10.0,SSW,4.6,-,N/A,,Partly Cloudy,200,2013-12-21 11:54:00
7:54 AM,53.1,46.0,77,30.00,10.0,Variable,5.8,-,N/A,,Overcast,0,2013-12-21 12:54:00
8:54 AM,55.0,46.9,74,30.01,10.0,SSW,5.8,-,N/A,,Overcast,200,2013-12-21 13:54:00
9:54 AM,57.9,48.0,70,30.02,10.0,SW,9.2,17.3,N/A,,Overcast,220,2013-12-21 14:54:00
10:54 AM,61.0,50.0,67,29.99,10.0,SW,8.1,-,N/A,,Overcast,220,2013-12-21 15:54:00
11:54 AM,64.0,48.9,58,29.96,10.0,SW,6.9,16.1,N/A,,Clear,220,2013-12-21 16:54:00
12:54 PM,66.0,50.0,56,29.94,10.0,Variable,5.8,-,N/A,,Mostly Cloudy,0,2013-12-21 17:54:00
1:54 PM,68.0,51.1,55,29.92,10.0,Variable,6.9,-,N/A,,Clear,0,2013-12-21 18:54:00
2:54 PM,68.0,51.1,55,29.92,10.0,SSW,6.9,-,N/A,,Clear,210,2013-12-21 19:54:00
3:54 PM,66.0,51.1,59,29.94,10.0,SSW,5.8,-,N/A,,Mostly Cloudy,210,2013-12-21 20:54:00
4:54 PM,63.0,51.1,65,29.94,10.0,Variable,6.9,-,N/A,,Clear,0,2013-12-21 21:54:00
5:54 PM,62.1,51.1,67,29.96,10.0,Variable,5.8,-,N/A,,Clear,0,2013-12-21 22:54:00
6:54 PM,62.1,52.0,70,29.96,10.0,South,4.6,-,N/A,,Scattered Clouds,190,2013-12-21 23:54:00
7:54 PM,61.0,52.0,72,29.96,10.0,South,6.9,-,N/A,,Clear,190,2013-12-22 00:54:00
8:54 PM,60.1,53.1,78,29.96,10.0,SSW,8.1,-,N/A,,Clear,200,2013-12-22 01:54:00
9:54 PM,62.1,54.0,75,29.95,10.0,SSW,9.2,18.4,N/A,,Partly Cloudy,210,2013-12-22 02:54:00
10:54 PM,63.0,55.0,75,29.95,10.0,South,8.1,-,N/A,,Overcast,190,2013-12-22 03:54:00
11:54 PM,63.0,55.9,78,29.93,10.0,South,6.9,-,N/A,,Scattered Clouds,190,2013-12-22 04:54:00